Regional Weather Roundup
Issued by NWS

Home | Current Version | Previous Version | Graphics & Text | Print | Product List | Glossary On
Versions: 1 2 3 4 5 6 7 8 9 10 11 12 13 14 15 16 17 18 19 20 21 22 23 24 25 26 27 28 29 30 31 32 33 34 35 36 37 38 39 40 41 42 43 44 45 46 47 48 49 50
000
ASUS44 KMEG 040800
RWRTN
TENNESSEE HOURLY STATE WEATHER ROUNDUP
NATIONAL WEATHER SERVICE MEMPHIS TN
300 AM CDT SAT JUL 04 2015

TNZ002-004-019-021-049-052-054-088>092-040900-
WEST TENNESSEE

CITY           SKY/WX    TMP DP  RH WIND       PRES   REMARKS
MEMPHIS INTL   CLOUDY    73  70  90 SW3       29.89F
NWS MEMPHIS      N/A     72 N/A N/A MISG        N/A
JACKSON        CLOUDY    71  69  93 S3        29.91F
DYERSBURG        N/A    N/A N/A N/A MISG        N/A
PARIS          CLOUDY    66  66 100 CALM      29.91S VSB 1
LEXINGTON      CLOUDY    72  70  94 SW3       29.91S
$$

TNZ008-025-027-028-033-062-065-066-040900-
NORTH MIDDLE TENNESSEE

CITY           SKY/WX    TMP DP  RH WIND       PRES   REMARKS
NASHVILLE      PTCLDY    69  69 100 S3        29.92S
CLARKSVILLE    CLOUDY    71  69  93 CALM      29.90F
SMYRNA         CLOUDY    72  70  94 CALM      29.93S
COOKEVILLE     MOCLDY    70  70 100 S6        29.94F
CROSSVILLE     CLOUDY    68  64  87 VRB3      29.99S
$$

TNZ061-075-076-078-094-096-097-040900-
SOUTH MIDDLE TENNESSEE

CITY           SKY/WX    TMP DP  RH WIND       PRES   REMARKS
FAYETTEVILLE   CLOUDY    66  66 100 SW5       29.97S
TULLAHOMA      CLOUDY    68  66  94 S7        29.97S
WINCHESTER     CLOUDY    70  66  88 SW5       29.97S
SHELBYVILLE    CLOUDY    72  72 100 S6          N/A
$$

TNZ017-018-042-046-047-040900-
NORTHEAST TENNESSEE

CITY           SKY/WX    TMP DP  RH WIND       PRES   REMARKS
TRI CITIES     MOCLDY    69  65  86 SW6       29.96S
ELIZABETHTON   CLOUDY    68  63  83 W8        29.97S
$$

TNZ012-013-036-069-073-074-040900-
CENTRAL EAST TENNESSEE

CITY           SKY/WX    TMP DP  RH WIND       PRES   REMARKS
KNOXVILLE      CLOUDY    69  66  90 S13       29.95S
OAK RIDGE      CLOUDY    70  66  87 VRB5      29.96S
GATLINBURG     CLOUDY    70  63  78 SW9       29.96R
$$

TNZ083-085-099-040900-
SOUTHEAST TENNESSEE

CITY           SKY/WX    TMP DP  RH WIND       PRES   REMARKS
CHATTANOOGA    CLOUDY    70  68  93 SE3       29.98R
$$

SKY/WX REPORTED AS FAIR MEANS FEW OR NO CLOUDS BELOW
12 THOUSAND FEET.




USA.gov is the U.S. government's official web portal to all federal, state and local government web resources and services.